Regional Weather Roundup
Issued by NWS

Home | Current Version | Previous Version | Graphics & Text | Print | Product List | Glossary Off
Versions: 1 2 3 4 5 6 7 8 9 10 11 12 13 14 15 16 17 18 19 20 21 22 23 24 25 26 27 28 29 30 31 32 33 34 35 36 37 38 39 40 41 42 43 44 45 46 47 48 49 50

000
ASUS43 KMKX 222021
RWRWI

WISCONSIN REGIONAL WEATHER ROUNDUP
NATIONAL WEATHER SERVICE MILWAUKEE/SULLIVAN WI
300 PM CDT SUN OCT 22 2017

NOTE: "FAIR" INDICATES FEW OR NO CLOUDS BELOW 12,000 FEET WITH NO
SIGNIFICANT WEATHER AND/OR OBSTRUCTIONS TO VISIBILITY.

WIZ001-002-006>008-014>016-023>028-222100-
NORTHWEST WISCONSIN

CITY           SKY/WX    TMP DP  RH WIND       PRES   REMARKS
SUPERIOR ARPT  SUNNY     61  32  33 W10G18    29.87S
ASHLAND        MOSUNNY   58  38  47 SW10      29.89S
HAYWARD        MOSUNNY   58  33  39 W10G20    29.92S
SIREN          SUNNY     61  30  30 W16G25    29.92F
CUMBERLAND     MOSUNNY   57  32  38 W14       29.94F
RICE LAKE      MOSUNNY   59  32  36 W10G17    29.95F
CHETEK         MOSUNNY   58  36  43 W8        29.95S
LADYSMITH      CLOUDY    53  40  61 SW6       29.97R
EAU CLAIRE     CLOUDY    57  37  47 W12       29.96F
MENOMONIE      CLOUDY    59  36  41 W12G17    29.97S
NEW RICHMOND   SUNNY     61  32  32 W10       29.95F
OSCEOLA        SUNNY     62  32  32 W12G17    29.97F
$$

WIZ003>005-009-010-017-018-222100-
NORTH CENTRAL WISCONSIN

CITY           SKY/WX    TMP DP  RH WIND       PRES   REMARKS
MANITOWISH WTR CLOUDY    48  44  84 SW7       29.91F
ARBOR VITAE    CLOUDY    52  45  77 W6        29.92S
WOODRUFF       CLOUDY    52  45  77 W6        29.92S
RHINELANDER    CLOUDY    49  44  83 W8        29.95R
EAGLE RIVER    NOT AVBL
LAND O LAKES   CLOUDY    49  41  76 SW6       29.92F
PHILLIPS       SUNNY     49  41  72 W3        29.93S
TOMAHAWK       CLOUDY    49  41  74 CALM      29.95R
MEDFORD        PTSUNNY   49  40  71 W7        29.95S
MERRILL        CLOUDY    50  44  80 SW3       29.97R
$$

WIZ029-030-035-036-043>047-222100-
CENTRAL WISCONSIN

CITY           SKY/WX    TMP DP  RH WIND       PRES   REMARKS
WAUSAU         CLOUDY    50  43  77 W6        29.96R
MOSINEE        CLOUDY    48  46  93 SW3       29.99R
MARSHFIELD     CLOUDY    51  43  74 W5        29.97R
STEVENS POINT  DRIZZLE   48  47  95 W5        30.00R
WAUPACA        LGT RAIN  53  50  90 W5        29.99R
WAUTOMA        LGT RAIN N/A N/A N/A W6        30.01R
WISC RAPIDS    LGT RAIN  51  48  89 W5        30.00R
CAMP DOUGLAS   NOT AVBL
$$

WIZ011>013-019>022-031-037>040-048>050-222100-
NORTHEAST WISCONSIN

CITY           SKY/WX    TMP DP  RH WIND       PRES   REMARKS
ANTIGO         CLOUDY    47  46  95 W7        29.97R
SHAWANO        LGT RAIN  52  48  84 W6        29.97R
OCONTO         CLOUDY    51  50  97 CALM      29.94S
STURGEON BAY   CLOUDY    51  49  92 NW6       29.96S
GREEN BAY      CLOUDY    53  51  93 W7        29.97S
MANITOWOC      CLOUDY    52  50  93 NW5       29.98R
APPLETON       LGT RAIN  52  50  93 W7        29.96R
CLINTONVILLE   RAIN      52  48  87 W6        29.98R
OSHKOSH        LGT RAIN  52  48  86 W3        29.98R
$$

WIZ032>034-041-042-053>061-222100-
SOUTHWEST WISCONSIN

CITY           SKY/WX    TMP DP  RH WIND       PRES   REMARKS
LA CROSSE      CLOUDY    57  43  59 CALM      30.00S
SPARTA         CLOUDY    53  45  76 CALM      30.02R
VIROQUA        CLOUDY    52  46  80 W5        30.00F
BOSCOBEL       CLOUDY    55  48  77 CALM      30.03S
PRAIRIE DU CHI CLOUDY    55  43  64 W3        30.03S
PLATTEVILLE    CLOUDY    52  50  94 W5        30.03S
$$

WIZ056-057-062-063-064-067-068-222100-
SOUTH CENTRAL WISCONSIN

CITY           SKY/WX    TMP DP  RH WIND       PRES   REMARKS
REEDSBURG      RAIN      50  48  93 CALM      30.01S
BARABOO/DELLS  LGT RAIN  50  46  87 CALM      30.02R
LONE ROCK      LGT RAIN  53  49  86 W3        30.02S
MINERAL POINT  LGT RAIN  52  50  93 CALM      30.03R
MADISON        LGT RAIN  51  48  89 NW9       30.01R
MIDDLETON      CLOUDY    51  48  89 NW6       30.02S
WATERTOWN      LGT RAIN  51  51 100 CALM      30.00R
MONROE         DRIZZLE   50  46  87 N7        30.01R
JANESVILLE     LGT RAIN  52  52 100 N10       30.00R
$$

WIZ051-052-058>065-066-070>072-222100-
SOUTHEAST WISCONSIN

CITY           SKY/WX    TMP DP  RH WIND       PRES   REMARKS
MILWAUKEE      LGT RAIN  53  50  89 N12       29.99R
WAUKESHA       CLOUDY    48  46  93 NW12      30.00R
MILWAUKEE/TIMM CLOUDY    52  46  82 NW7       29.99R
RACINE         LGT RAIN  52  50  93 N12       30.00R
BURLINGTON     RAIN      50  50 100 NW7       30.00R
KENOSHA        LGT RAIN  52  49  89 N14G22    29.99R FOG
FOND DU LAC    HVY RAIN  52  47  83 CALM      29.98F
SHEBOYGAN      LGT RAIN  52  50  93 NW7       29.97S
WEST BEND      CLOUDY    50  46  87 NW5       29.98S
JUNEAU         RAIN      50  48  92 CALM      30.00R
$$

LSZ147-162-222100-
LAKE SUPERIOR

STATION/POSITION TIME  TEMP    WIND        PRES    WAVE
                       AIR SEA DIR/SP/G            HT/PER
                 (UTC) (F)     (DEG/KT/KT) (MB)    (FT/S)
W MID LAKE BUOY  1950   52 52              1010.5F   5/ 6
DEVILS ISLAND    2000   54     230/ 20/ 24 1011.6R
SAXON HARBOR     1940   55     210/  7/ 13 1011.9F
$$

LMZ867-665-643>646-222100-
LAKE MICHIGAN

STATION/POSITION TIME  TEMP    WIND        PRES    WAVE
                       AIR SEA DIR/SP/G            HT/PER
                 (UTC) (F)     (DEG/KT/KT) (MB)    (FT/S)
S GREEN BAY BUOY 2000   53 58  250/  6/  8 1014.1
N MID LAKE BUOY  1950   54 58  300/ 12/ 16 1014.1R   6/ 7
NORTHPORT PIER   1940   54     290/  7/ 10 1014.2R
KEWAUNEE LAKESHO 1954   52     310/  5/  6 1013.8F
SHEBOYGAN LAKESH 2000   52     310/  8/ 10 1015.2R
PORT WASHINGTON  1930   53     340/  4/  8 1015.9R
ATWATER BUOY     1809   52 52  320/ 19/ 29 1014.5R
MILWAUKEE LAKESH 2000   52     330/  6/  8   N/A
S MID LAKE BUOY  1950   63 60  190/ 12/ 14 1013.1R   3/ 5
KENOSHA   LAKESH 2000   52     340/ 19/ 23 1015.2
$$

TC  - TEMPERATURE IN CELSIUS
VSB - VISIBILITY IN STATUTE MILES
WCI - WIND CHILL INDEX
HX  - HEAT INDEX





USA.gov is the U.S. government's official web portal to all federal, state and local government web resources and services.